[[{"header":{"parameterUnit":"m.s-1","parameterCategory":1,"la1":30.2991,"la2":30.254,"lo1":-89.0895,"lo2":-89.0444,"dy":0.0017,"dx":0.0017,"nx":28,"ny":28,"refTime":"2025-04-28T03:00:00:Z","depth":0,"parameterNumber":2,"parameterNumberName":"U-component_of_WINDS"},"data":[0,0,0,0,0,0,0,0,0,0,0,0,0,0,0,0,0,0,0,0,0,0,0,0,0,0,0,0,0,0,0,0,0,0,0,0,0,0,0,0,0,0,0,0,0,0,0,0,0,0,0,0,0,0,0,0,0,0,1.734,1.734,0,1.7354,1.7354,1.7354,1.73,1.7298,1.7297,1.7295,1.7311,1.7313,1.7315,0,0,0,0,0,0,0,0,0,0,0,0,0,1.7267,1.7269,1.734,1.734,1.734,1.7354,1.7354,1.7354,1.73,1.7298,1.7296,1.7294,1.731,1.7313,1.7315,0,0,0,0,0,0,0,0,0,0,0,0,0,1.7292,1.7269,1.734,1.7315,1.7313,1.7354,1.7354,1.7354,1.7301,1.7298,1.7296,1.7293,1.731,1.7312,1.7315,1.7382,0,0,1.7324,1.7325,0,0,0,0,0,0,0,0,1.729,1.7294,1.7319,1.7317,1.7315,1.7323,1.7334,1.7364,1.7301,1.7305,1.7295,1.7292,1.7317,1.7319,1.7327,1.7382,1.7383,1.7324,1.7326,1.7327,1.7328,0,0,0,0,0,0,0,1.7289,1.7293,1.7346,1.7319,1.7317,1.7303,1.7304,1.7339,1.7325,1.7305,1.7301,1.7303,1.7315,1.7324,1.7327,1.7383,1.7324,1.7327,1.7329,1.733,1.749,1.7492,0,0,0,0,0,0,1.729,1.7292,1.7345,1.7346,1.7296,1.7306,1.7307,1.7323,1.7324,1.7322,1.7305,1.7301,1.7321,1.7324,1.7327,1.7402,1.7327,1.733,1.7332,1.7487,1.749,1.7493,0,0,0,0,0,0,1.7289,1.7295,1.7345,1.7318,1.7323,1.731,1.7328,1.7324,1.7333,1.7324,1.7322,1.7317,1.7319,1.7323,1.7367,1.7402,1.7331,1.7334,1.7484,1.7488,1.7492,1.7553,0,0,0,0,0,0,1.7287,1.7295,1.732,1.7319,1.7325,1.7385,1.733,1.7326,1.7338,1.7332,1.7335,1.7333,1.7317,1.7363,1.737,1.7404,1.7336,1.7481,1.7486,1.749,1.7548,1.7559,1.7568,0,0,0,0,0,1.7285,1.7339,1.7322,1.7329,1.7356,1.7387,1.739,1.7371,1.7341,1.7366,1.736,1.7333,1.7398,1.7368,1.7376,1.7411,1.7479,1.7484,1.749,1.7544,1.7557,1.7568,0,0,0,0,0,0,1.7346,1.7338,1.732,1.7375,1.7382,1.7378,1.7408,1.7386,1.7402,1.7396,1.7371,1.7372,1.742,1.7421,1.7388,1.7474,1.7433,1.744,1.7471,1.7483,1.7493,1.7491,1.7339,0,0,0,0,0,1.7366,1.7391,1.7383,1.7432,1.7437,1.7422,1.7435,1.7419,1.7425,1.7428,1.7426,1.7433,1.7455,1.747,1.7489,1.7549,1.7547,1.7577,1.7586,1.7595,1.76,1.7628,1.764,1.7511,1.7511,1.7511,0,0,1.7407,1.7406,1.7424,1.7445,1.7448,1.7474,1.7425,1.7456,1.7474,1.7433,1.7473,1.7472,1.7479,1.7529,1.7552,1.7531,1.7636,1.7602,1.7608,1.761,1.7635,1.7648,1.7658,1.7515,1.7515,1.7514,0,0,1.7495,1.7498,1.7537,1.7541,1.7546,1.7536,1.7545,1.7544,1.7541,1.7581,1.755,1.7572,1.7611,1.7615,1.7623,1.771,1.7685,1.7718,1.7768,1.7796,1.7806,1.7815,1.7843,1.7854,1.7724,1.7724,1.7725,0,1.7545,1.7583,1.7561,1.7592,1.7601,1.7564,1.7603,1.7608,1.762,1.7627,1.7604,1.7649,1.7652,1.7701,1.7722,1.7731,1.774,1.7716,1.7806,1.7815,1.7823,1.7849,1.786,1.7728,1.7728,1.7727,1.7727,0,1.7643,1.767,1.7701,1.7711,1.7724,1.776,1.7742,1.7758,1.7741,1.7733,1.7772,1.7774,1.7791,1.7803,1.7787,1.785,1.7836,1.7811,1.7768,1.7839,1.7863,1.7874,1.7733,1.7732,1.7731,1.773,0,0,1.777,1.7765,1.7777,1.7779,1.7782,1.7801,1.7835,1.785,1.7863,1.7873,1.7898,1.7931,1.7906,1.7914,1.7899,1.7924,1.7989,1.7894,1.7894,1.7909,1.8054,1.8071,1.8083,1.7973,1.7975,1.7976,1.8052,0,1.7853,1.7907,1.7887,1.7943,1.7966,1.793,1.7958,1.7962,1.7956,1.7974,1.7967,1.7988,1.7956,1.796,1.7983,1.7976,1.8017,1.7971,1.7995,1.7996,1.7991,1.8096,1.8115,1.8187,1.8062,1.8064,1.8065,0,1.7957,1.7968,1.8025,1.802,1.8029,1.8055,1.8066,1.8085,1.8088,1.8081,1.809,1.8068,1.8099,1.8059,1.8101,1.8069,1.8078,1.8076,1.8079,1.8078,1.8033,1.8096,1.821,1.8219,1.808,1.8079,1.8078,0,1.8039,1.8069,1.8106,1.811,1.8106,1.8124,1.8124,1.8125,1.8134,1.8145,1.8151,1.8166,1.8173,1.8185,1.8168,1.8141,1.821,1.817,1.8204,1.8204,1.8218,1.8217,1.8332,1.8229,1.8229,1.8229,1.8229,0,1.8132,1.8168,1.8142,1.8164,1.8203,1.818,1.8218,1.8214,1.8215,1.8235,1.8207,1.8227,1.8205,1.8222,1.821,1.8244,1.8249,1.8243,1.8238,1.8243,1.8244,1.8247,1.824,1.8232,1.8231,1.8231,1.823,0,1.8229,1.8214,1.8251,1.8243,1.8242,1.8271,1.8264,1.8284,1.8275,1.8301,1.8306,1.8292,1.8311,1.8296,1.8315,1.8306,1.8351,1.8341,1.8349,1.8345,1.8379,1.8375,1.8498,1.8512,1.8403,1.8404,1.8405,0,1.8288,1.8314,1.8309,1.8319,1.832,1.8339,1.8348,1.8326,1.8337,1.8341,1.8361,1.8377,1.8389,1.8421,1.8412,1.8427,1.8415,1.8457,1.8417,1.842,1.8412,1.8409,1.841,1.8465,1.8466,1.8467,1.8468,0,1.8393,1.8383,1.8397,1.8407,1.8419,1.8426,1.8432,1.8443,1.842,1.8434,1.8452,1.8461,1.848,1.8496,1.8506,1.8506,1.8482,1.8481,1.8489,1.8493,1.8495,1.8491,1.8368,1.8477,1.8476,1.8476,1.8475,1.8475,1.847,1.849,1.8489,1.8504,1.8506,1.8511,1.8528,1.852,1.8535,1.8547,1.8534,1.8555,1.8556,1.8568,1.857,1.8586,1.8569,1.8581,1.8584,1.8587,1.859,1.8495,1.8589,1.8588,1.8588,1.8588,1.8588,0,1.8571,1.8567,1.8582,1.8589,1.8601,1.8578,1.8582,1.8593,1.8612,1.8615,1.8626,1.8646,1.8661,1.8653,1.8665,1.868,1.8669,1.8684,1.8681,1.868,1.8607,1.8597,1.8692,1.8692,1.8691,1.8691,1.8691,1.8691,1.8624,1.8655,1.8645,1.8677,1.8674,1.8693,1.8697,1.8701,1.8702,1.8725,1.8737,1.8731,1.8729,1.8741,1.8753,1.875,1.8755,1.8772,1.8766,1.8696,1.8686,1.8676,1.8666,1.8774,1.8775,1.8837,1.8838,1.8839]},{"header":{"parameterUnit":"m.s-1","parameterCategory":1,"la1":30.2991,"la2":30.254,"lo1":-89.0895,"lo2":-89.0444,"dy":0.0017,"dx":0.0017,"nx":28,"ny":28,"refTime":"2025-04-28T03:00:00:Z","depth":0,"parameterNumber":3,"parameterNumberName":"V-component_of_WINDS"},"data":[0,0,0,0,0,0,0,0,0,0,0,0,0,0,0,0,0,0,0,0,0,0,0,0,0,0,0,0,0,0,0,0,0,0,0,0,0,0,0,0,0,0,0,0,0,0,0,0,0,0,0,0,0,0,0,0,0,0,2.924,2.9241,0,2.9344,2.9346,2.9347,2.9342,2.934,2.9339,2.9337,2.9439,2.9443,2.9447,0,0,0,0,0,0,0,0,0,0,0,0,0,2.9029,2.9033,2.9239,2.9241,2.9242,2.9344,2.9346,2.9347,2.9342,2.934,2.9338,2.9337,2.9438,2.9443,2.9447,0,0,0,0,0,0,0,0,0,0,0,0,0,2.9126,2.9034,2.9239,2.9252,2.9254,2.9344,2.9346,2.9347,2.9342,2.934,2.9338,2.9336,2.9436,2.9442,2.9448,2.953,0,0,2.9467,2.9469,0,0,0,0,0,0,0,0,2.912,2.9134,2.9249,2.9251,2.9254,2.9328,2.9309,2.9408,2.9343,2.9309,2.9337,2.9335,2.9403,2.9412,2.9436,2.9535,2.9539,2.9467,2.9471,2.9474,2.9475,0,0,0,0,0,0,0,2.9114,2.9129,2.9281,2.9251,2.9254,2.9251,2.9262,2.9328,2.9367,2.9312,2.9312,2.9324,2.9404,2.9431,2.9439,2.9541,2.9467,2.9473,2.9476,2.9479,2.9709,2.9712,0,0,0,0,0,0,2.9105,2.9123,2.9277,2.9284,2.9181,2.9256,2.9269,2.9306,2.9366,2.9374,2.9326,2.9324,2.9421,2.9432,2.9442,2.9541,2.9474,2.9479,2.9483,2.9707,2.971,2.9713,0,0,0,0,0,0,2.9101,2.9119,2.9273,2.9204,2.9223,2.9262,2.9304,2.931,2.9336,2.9377,2.9384,2.9346,2.942,2.9434,2.9508,2.9545,2.9482,2.9488,2.9704,2.9708,2.9711,2.974,0,0,0,0,0,0,2.9095,2.9117,2.915,2.9205,2.9227,2.9339,2.9307,2.9313,2.9347,2.9345,2.9398,2.9404,2.9419,2.9499,2.9514,2.9552,2.9492,2.9701,2.9706,2.971,2.9736,2.9744,2.9751,0,0,0,0,0,2.9087,2.9153,2.9152,2.9171,2.9269,2.9342,2.9354,2.9372,2.935,2.9382,2.9409,2.9403,2.9538,2.9507,2.9524,2.9564,2.9699,2.9704,2.971,2.9732,2.9742,2.9751,0,0,0,0,0,0,2.91,2.916,2.916,2.9246,2.9289,2.9341,2.9382,2.9382,2.943,2.9426,2.9444,2.9456,2.953,2.9554,2.9518,2.9645,2.9615,2.9625,2.9627,2.9637,2.9644,2.9636,2.9498,0,0,0,0,0,2.9113,2.9169,2.9218,2.9289,2.9311,2.9343,2.9375,2.9385,2.9429,2.9447,2.9479,2.952,2.9572,2.9606,2.9656,2.9739,2.975,2.9775,2.9783,2.9789,2.9796,2.984,2.9852,2.9731,2.9731,2.9731,0,0,2.9141,2.918,2.9214,2.9293,2.9327,2.9382,2.9358,2.9417,2.9458,2.9455,2.9528,2.9552,2.96,2.9679,2.9715,2.9701,2.9832,2.9796,2.98,2.9804,2.9847,2.9859,2.9869,2.9735,2.9734,2.9733,0,0,2.9218,2.9255,2.9318,2.9353,2.9406,2.9427,2.9442,2.9494,2.9511,2.9584,2.9583,2.963,2.972,2.9753,2.9782,2.9872,2.9867,2.9888,2.9927,2.997,2.9979,2.9988,3.0018,3.0029,2.9895,2.9895,2.9895,0,2.9245,2.933,2.9349,2.9409,2.9443,2.9445,2.9507,2.954,2.9606,2.9628,2.9612,2.9724,2.9756,2.9842,2.9864,2.9888,2.9904,2.9881,2.9977,2.9985,2.9994,3.0023,3.0034,2.9897,2.9897,2.9897,2.9896,0,2.9359,2.9418,2.9462,2.9527,2.9566,2.9626,2.9653,2.969,2.9696,2.9718,2.9792,2.983,2.9888,2.9909,2.9916,2.9996,2.9986,2.9973,2.9943,3.0007,3.0034,3.0046,2.99,2.9899,2.9899,2.9898,0,0,2.9447,2.9523,2.9539,2.9568,2.9626,2.9671,2.9731,2.9789,2.9819,2.9864,2.9914,2.9989,2.9978,3.0011,3.002,3.0058,3.0125,3.0041,3.0042,3.0054,3.0214,3.0222,3.0235,3.0123,3.0125,3.0127,3.021,0,2.953,2.9639,2.9658,2.9752,2.9805,2.9807,2.9859,2.99,2.9922,2.9968,2.9992,3.0045,3.0026,3.0046,3.0084,3.0109,3.0157,3.0103,3.0167,3.0169,3.0154,3.025,3.0259,3.0335,3.0221,3.0223,3.0224,0,2.9641,2.969,2.979,2.9841,2.9864,2.991,2.9964,3.001,3.0055,3.0068,3.0105,3.011,3.017,3.0139,3.0221,3.0184,3.021,3.0227,3.023,3.0235,3.0199,3.0256,3.036,3.0371,3.0242,3.024,3.0239,0,2.9693,2.9785,2.9856,2.9881,2.9942,2.9975,3.0001,3.0045,3.0078,3.0124,3.0146,3.0198,3.0226,3.0266,3.0284,3.026,3.0365,3.0335,3.0375,3.0375,3.0396,3.0394,3.0504,3.0416,3.0416,3.0415,3.0415,0,2.9782,2.9843,2.9881,2.9924,2.9991,3.0012,3.0077,3.0103,3.0141,3.0188,3.0193,3.0237,3.0259,3.0306,3.0321,3.0385,3.0398,3.0409,3.0412,3.0408,3.0406,3.0425,3.0419,3.0418,3.0418,3.0417,3.0417,0,2.9852,2.988,2.9958,3.001,3.0024,3.0071,3.0114,3.0156,3.0178,3.0237,3.0252,3.0286,3.034,3.0363,3.043,3.044,3.0514,3.0513,3.0499,3.05,3.0538,3.0534,3.0663,3.068,3.0581,3.0582,3.0583,0,2.9907,2.9954,3.0011,3.0044,3.0072,3.0124,3.0159,3.018,3.0215,3.027,3.0304,3.036,3.0405,3.0492,3.0521,3.0572,3.0572,3.0613,3.0579,3.0573,3.057,3.0567,3.0571,3.0619,3.062,3.0621,3.0622,0,3.0,3.0012,3.0062,3.0117,3.0159,3.0203,3.0245,3.0271,3.0299,3.0338,3.0395,3.0431,3.0499,3.0553,3.0606,3.0631,3.063,3.0632,3.0644,3.064,3.0629,3.0634,3.0515,3.0629,3.0628,3.0628,3.0627,3.0627,3.0063,3.0104,3.0151,3.0207,3.0242,3.0281,3.0323,3.035,3.0399,3.0458,3.0467,3.0528,3.057,3.0641,3.0668,3.0714,3.0703,3.072,3.0724,3.0728,3.073,3.0623,3.0724,3.0723,3.0723,3.0723,3.0723,0,3.0155,3.0186,3.0237,3.0297,3.0341,3.0339,3.0386,3.0421,3.0475,3.0516,3.0561,3.0625,3.0678,3.0711,3.0763,3.0794,3.0795,3.0807,3.0804,3.0809,3.0737,3.0721,3.0805,3.0805,3.0805,3.0805,3.0805,3.0805,3.0208,3.0278,3.0295,3.0381,3.041,3.0471,3.0498,3.0534,3.0566,3.0639,3.0684,3.0706,3.0743,3.0798,3.0845,3.0853,3.0871,3.0884,3.0891,3.0823,3.0814,3.0806,3.0791,3.0888,3.0888,3.0959,3.096,3.096]}]]